Regional Weather Roundup
Issued by NWS

Home | Current Version | Previous Version | Text Only | Print | Product List | Glossary On
Versions: 1 2 3 4 5 6 7 8 9 10 11 12 13 14 15 16 17 18 19 20 21 22 23 24 25 26 27 28 29 30 31 32 33 34 35 36 37 38 39 40 41 42 43 44 45 46 47 48 49 50
000
ASUS44 KJAN 271403
RWRMS

MISSISSIPPI HOURLY WEATHER ROUNDUP
NATIONAL WEATHER SERVICE JACKSON MS
900 AM CDT WED JUL 27 2016

NOTE: "FAIR: INDICATES FEW OR NO CLOUDS BELOW 12,000 FEET WITH NO
SIGNIFICANT WEATHER AND/OR OBSTRUCTIONS TO VISIBILITY.

MSZ001>002-007>008-010>013-018>021-025>028-034>036-271500-
NORTHWEST MISSISSIPPI

CITY           SKY/WX    TMP DP  RH WIND       PRES   REMARKS
CLEVELAND      TSTM      77  77 100 S6        29.96S
GREENWOOD      CLOUDY    78  74  87 S8        29.97S
GREENVILLE     HVY RAIN  77  75  93 SE3       29.97R FOG
OXFORD         PTSUNNY   79  73  83 E7        30.00S
WINONA         CLOUDY    78  74  86 S8        29.99S
$$

MSZ003>006-009-014>017-022>024-029>033-037>039-271500-
NORTHEAST MISSISSIPPI

CITY           SKY/WX    TMP DP  RH WIND       PRES   REMARKS
ABERDEEN       PTSUNNY   79  61  53 SE3       30.02S HAZE
COLUMBUS AFB   DRIZZLE   79  77  94 S10       30.00F FOG
GOLDN TRIANGLE PTSUNNY   79  72  78 S7        30.00F
TUPELO         CLOUDY    81  74  79 SE8       29.99F
$$

MSZ040-058-271500-
CENTRAL MISSISSIPPI

CITY           SKY/WX    TMP DP  RH WIND       PRES   REMARKS
JACKSON INTL   CLOUDY    78  75  90 S7        29.98S
JACKSON HAWKNS PTSUNNY   79  75  87 S7        29.99S
MADISON        PTSUNNY   79  73  83 S6        29.98S
MERIDIAN KEY   CLOUDY    81  73  76 S9        30.02R
MERIDIAN NAS   CLOUDY    81  72  74 S5        30.02S
VICKSBURG VKS  CLOUDY    77  77 100 CALM      29.97S
$$

MSZ059>079-271500-
SOUTH MISSISSIPPI

CITY           SKY/WX    TMP DP  RH WIND       PRES   REMARKS
BROOKHAVEN     CLOUDY   N/A N/A N/A S7        30.01S FOG
COLUMBIA       PTSUNNY   77  75  94 SW6       30.06R
HATTIESBURG    MOSUNNY   80  74  81 SW8       30.03R
MCCOMB         CLOUDY    76  73  91 SW10G17   30.02R
NATCHEZ        CLOUDY    79  73  83 SW7       29.99R
PINE BELT      MOSUNNY   79  72  78 S8        30.03S
$$

MSZ080>082-271500-
COASTAL MISSISSIPPI

CITY           SKY/WX    TMP DP  RH WIND       PRES   REMARKS
BILOXI         MOSUNNY   85  76  74 W10G39    30.05R HX  93
PASCAGOULA     PTSUNNY   86  79  79 VRB6      30.04R HX  99
GULFPORT       LGT RAIN  74  71  91 W16G28    30.06R
$$

LAZ007>009-015>016-023>026-271500-
NORTHEAST LOUISIANA

CITY           SKY/WX    TMP DP  RH WIND       PRES   REMARKS
BASTROP        LGT RAIN  77  76  97 N3        29.98S
TALLULAH/VBURG PTSUNNY   81  76  84 VRB3      29.97S
VIDALIA        LGT RAIN  76  76  97 SW7       30.00F
$$



USA.gov is the U.S. government's official web portal to all federal, state and local government web resources and services.